Liberia, Costa Rica

10:22 PM CST on March 26, 2017 (GMT -0600)
Daniel Oduber Quiros International

Weather History for MRLB - June, 2014

Change the Weather History Date:

Friday, June 6, 2014

  Actual Average Record
Temperature  
Mean Temperature 83 °F -  
Max Temperature 92 °F 86 °F 93 °F (2015)
Min Temperature 74 °F 75 °F 69 °F (2013)
Cooling Degree Days 18    
Growing Degree Days 33 (Base 50)    
Moisture  
Dew Point 72 °F    
Average Humidity 70    
Maximum Humidity 94    
Minimum Humidity 44    
Precipitation  
Precipitation 0.39 in - - ()
Sea Level Pressure  
Sea Level Pressure 29.77 in    
Wind  
Wind Speed 5 mph ()    
Max Wind Speed 12 mph    
Max Gust Speed -    
Visibility 7.7 miles    
Events Rain , Thunderstorm    
Averages and records for this station are not official NWS values.
T = Trace of Precipitation, MM = Missing Value Source: Averaged Metar Reports

Daily Weather History Graph

Daily Weather History Graph

Search for Another Location

Airport or City:

Trip Planner

Search our weather history database for the weather conditions in past years. The results will help you decide how hot, cold, wet, or windy it might be!

Date:

Astronomy

Jun. 06, 2014 Rise Set
Actual Time 5:19 AM CST 6:02 PM CST
Civil Twilight 4:56 AM CST 6:25 PM CST
Nautical Twilight 4:29 AM CST 6:52 PM CST
Astronomical Twilight 4:01 AM CST 7:20 PM CST
Moon 12:24 PM CST (6/6) 12:02 AM CST (6/6)
Length of Visible Light 13h 29m
Length of Day
12h 43m
First Quarter, 59% of the Moon is Illuminated
Jun 6
First Quarter
Jun 12
Full
Jun 19
Last Quarter
Jun 27
New
Jul 5
First Quarter

Hourly Weather History & Observations

Time (CST) Temp. Heat Index Dew Point Humidity Pressure Visibility Wind Dir Wind Speed Gust Speed Precip Events Conditions
6:00 AM 75 °F - 71 °F 85% 29.78 in 12 mi SSW 3.5 mph - -   Clear
6:00 AM 75.2 °F - 71.6 °F 89% 29.75 in - SSW 3.5 mph - N/A   Clear
7:00 AM 78.8 °F - 71.6 °F 78% 29.77 in - NNW 3.5 mph - N/A   Clear
8:00 AM 82.4 °F 88.2 °F 73.4 °F 74% 29.78 in - West 3.5 mph - N/A   Clear
9:00 AM 85 °F - 71 °F 55% 29.82 in 12 mi West 5.8 mph - -   Clear
9:00 AM 86.0 °F 91.8 °F 71.6 °F 62% 29.78 in - West 5.8 mph - N/A   Clear
10:00 AM 89.6 °F 96.2 °F 71.6 °F 55% 29.77 in 6.2 mi ESE 8.1 mph - N/A   Scattered Clouds
11:00 AM 89.6 °F 94.7 °F 69.8 °F 52% 29.77 in 6.2 mi East 11.5 mph - N/A   Scattered Clouds
12:00 PM 91 °F - 72 °F 44% 29.79 in 12 mi East 6.9 mph - -   Partly Cloudy
12:00 PM 91.4 °F 100.1 °F 73.4 °F 55% 29.77 in 6.2 mi East 6.9 mph - N/A   Scattered Clouds
1:00 PM 89.6 °F 96.2 °F 71.6 °F 55% 29.75 in 6.2 mi East 6.9 mph - N/A   Scattered Clouds
2:00 PM 91.4 °F 98.4 °F 71.6 °F 52% 29.74 in 6.2 mi East 8.1 mph - N/A   Scattered Clouds
3:00 PM 88 °F - 73 °F 53% 29.76 in 12 mi West 9.2 mph - - Rain Light Rain
3:00 PM 87.8 °F 95.6 °F 73.4 °F 62% 29.73 in 6.2 mi West 9.2 mph - N/A Rain Rain
4:00 PM 82.4 °F 89.5 °F 75.2 °F 79% 29.73 in 6.2 mi WNW 5.8 mph - N/A   Scattered Clouds
4:35 PM 86.0 °F 95.1 °F 75.2 °F 70% 29.74 in 6.2 mi West 8.1 mph - N/A Rain , Thunderstorm Thunderstorms and Rain
5:00 PM 80.6 °F 85.4 °F 73.4 °F 79% 29.77 in 6.2 mi SSW 11.5 mph - N/A Rain , Thunderstorm Thunderstorms and Rain
5:20 PM 75.2 °F - 73.4 °F 94% 29.77 in 5.0 mi SSE 11.5 mph - N/A Rain , Thunderstorm Thunderstorms and Rain
6:00 PM 77 °F - 72 °F 82% 29.78 in 11 mi SW 3.5 mph - - Rain Light Rain
6:00 PM 77.0 °F - 73.4 °F 89% 29.75 in 6.2 mi SW 3.5 mph - N/A Rain Light Rain
7:00 PM 75.2 °F - 71.6 °F 89% 29.79 in 6.2 mi SE 2.3 mph - N/A   Overcast
8:00 PM 77.0 °F - 73.4 °F 89% 29.80 in 6.2 mi ESE 2.3 mph - N/A   Overcast